DW0333 Tranby-Lier NO current weather conditions

sailwx.info

Wind from 229 at 0 knots

Air temperature 11.7° C
Dewpoint 5.5° C

Last reported at 2018-May-21 01:01 UTC.
Time now 2018-May-21 01:31 UTC

Location: N 59°50' E 010°17'.
View on Google Maps.

See reports from other nearby stations

  
Tides and Currents Weather Stations Pressure Air Temp Water Temp Dewpoint Dewpoint Depression Visibility Wind Speed Wind Dir Waves Ship Positions
date/time (UTC)wind fromknots sea level pressurealtimeterstation pressurevisibilityair tempwater tempwave heightnotes
2018-May-21 01:01 229 0 11.7
2018-May-21 00:46 240 0 11.7
2018-May-21 00:31 238 0 12.2
2018-May-21 00:16 242 0 12.2
2018-May-21 00:01 250 1 12.2
2018-May-20 23:46 231 1 12.2
2018-May-20 23:31 233 1 11.7
2018-May-20 23:16 250 0 11.7
2018-May-20 22:58 267 0 11.7
2018-May-20 22:43 267 0 11.7
2018-May-20 22:28 245 0 11.7
2018-May-20 21:57 101 12.2
2018-May-20 21:42 102 0 12.2
2018-May-20 21:12 174 0 12.8
2018-May-20 20:57 161 0 12.8
2018-May-20 20:42 163 0 13.3
2018-May-20 20:26 152 1 13.3
2018-May-20 19:56 149 1 13.9
2018-May-20 19:11 156 3 15.0
2018-May-20 18:56 119 4 15.6
2018-May-20 18:41 195 4 16.1
2018-May-20 18:24 158 5 16.1
2018-May-20 18:11 152 6 16.7
2018-May-20 17:56 119 6 16.7
2018-May-20 17:41 212 5 16.7
2018-May-20 17:08 163 6 17.8
2018-May-20 16:53 150 6 17.8
2018-May-20 16:38 142 7 18.3
2018-May-20 16:07 135 6 18.9
2018-May-20 15:52 156 7 19.4
2018-May-20 15:36 166 8 19.4
2018-May-20 15:21 111 6 20.0
2018-May-20 15:06 138 6 20.0
2018-May-20 14:51 137 6 20.6
2018-May-20 14:36 075 5 20.0
2018-May-20 14:21 085 7 19.4
2018-May-20 14:06 112 6 19.4
2018-May-20 13:51 121 7 19.4
2018-May-20 13:36 136 7 20.0
2018-May-20 13:06 104 6 20.6
2018-May-20 12:51 120 6 21.1
2018-May-20 12:33 111 5 21.7
2018-May-20 12:18 091 6 21.1
2018-May-20 11:48 202 6 21.1
2018-May-20 11:17 169 5 20.6
2018-May-20 11:01 123 1 20.6
2018-May-20 10:47 142 4 20.0
2018-May-20 10:32 149 4 18.9
2018-May-20 10:01 147 4 18.9
2018-May-20 09:46 149 4 18.9
2018-May-20 09:31 088 4 18.9
2018-May-20 09:16 159 4 18.3
2018-May-20 08:31 140 2 16.7
2018-May-20 08:16 156 3 16.1
2018-May-20 07:59 169 3 15.6
2018-May-20 07:43 131 1 15.0
2018-May-20 07:28 151 2 14.4
2018-May-20 07:13 115 0 13.9
2018-May-20 06:58 094 1 12.8
2018-May-20 06:27 105 0 11.7
2018-May-20 06:12 092 1 11.1
2018-May-20 05:57 084 1 10.6
2018-May-20 05:42 066 1 10.6
2018-May-20 05:26 057 1 10.6
2018-May-20 05:11 067 1 10.0
2018-May-20 04:26 071 0 9.4
2018-May-20 04:11 061 1 8.9
2018-May-20 03:56 042 2 8.3
2018-May-20 03:26 038 2 8.3
2018-May-20 03:08 044 3 8.3
2018-May-20 02:53 042 3 8.3
2018-May-20 02:41 052 3 8.9
2018-May-20 02:23 044 2 9.4
2018-May-20 02:08 070 0 10.0
2018-May-20 01:53 080 10.0
2018-May-20 01:37 077 0 10.0
2018-May-20 01:22 090 0 10.0
2018-May-20 00:52 096 10.0
2018-May-20 00:21 046 1 10.6
2018-May-20 00:06 065 1 10.6
2018-May-19 23:51 121 0 11.1
2018-May-19 23:36 127 0 11.1
2018-May-19 23:21 128 1 11.1
2018-May-19 23:06 157 11.1
2018-May-19 22:51 144 0 11.7
2018-May-19 22:21 141 0 11.7
2018-May-19 22:03 138 1 12.2
2018-May-19 21:48 127 1 12.2
2018-May-19 21:18 144 2 12.8
2018-May-19 21:03 133 2 12.8
2018-May-19 20:47 121 1 12.8
2018-May-19 20:33 139 1 13.3
2018-May-19 20:17 151 0 13.9
2018-May-19 20:01 152 2 13.9
2018-May-19 19:46 160 2 14.4
2018-May-19 19:31 171 3 14.4
2018-May-19 18:46 118 3 16.1
2018-May-19 18:31 116 4 16.1
2018-May-19 18:01 115 5 17.2
2018-May-19 17:46 122 4 17.2
2018-May-19 17:31 095 4 17.8
2018-May-19 17:16 148 5 18.3
2018-May-19 17:01 086 4 18.3
2018-May-19 16:46 146 5 18.3
2018-May-19 16:28 110 6 18.9
2018-May-19 16:13 120 6 18.9
2018-May-19 15:43 110 6 19.4
2018-May-19 15:27 143 6 20.0
2018-May-19 15:12 129 6 20.0
2018-May-19 14:57 111 5 20.0
2018-May-19 14:42 116 6 20.0
2018-May-19 14:26 142 6 20.6
2018-May-19 14:11 072 6 20.6
2018-May-19 13:56 117 5 20.6
2018-May-19 13:41 092 5 20.6
2018-May-19 13:26 122 6 20.0
2018-May-19 13:11 106 6 20.0
2018-May-19 12:56 217 6 20.0
2018-May-19 12:41 167 6 19.4
2018-May-19 12:26 199 6 20.0
2018-May-19 12:11 166 6 20.0
2018-May-19 11:23 136 5 18.9
2018-May-19 11:08 202 4 18.9
2018-May-19 10:53 135 5 18.3
2018-May-19 10:38 148 4 18.3
2018-May-19 10:22 136 3 18.3
2018-May-19 10:07 232 2 17.8
2018-May-19 09:52 142 3 17.8
2018-May-19 09:37 129 2 17.2
2018-May-19 09:21 170 3 17.2
2018-May-19 09:06 197 2 16.7
2018-May-19 08:51 221 3 16.7
2018-May-19 08:36 267 2 16.1
2018-May-19 08:21 128 2 16.1
2018-May-19 08:06 267 2 16.1
2018-May-19 07:51 181 0 15.6
2018-May-19 07:36 200 0 15.0
2018-May-19 07:21 236 1 14.4
2018-May-19 07:03 230 0 13.9
2018-May-19 06:51 207 0 13.3
2018-May-19 06:33 248 0 13.9
2018-May-19 06:18 311 0 13.3
2018-May-19 06:03 304 0 12.8
2018-May-19 05:47 307 0 11.7
2018-May-19 05:31 296 2 11.1
2018-May-19 05:17 300 3 10.6
2018-May-19 05:01 300 1 10.6
2018-May-19 04:46 308 1 10.0
2018-May-19 04:31 306 1 10.0
2018-May-19 04:16 314 10.6
2018-May-19 04:01 314 10.0
2018-May-19 03:46 314 1 10.6
2018-May-19 03:31 292 2 10.6
2018-May-19 03:16 310 2 10.6
2018-May-19 03:02 306 0 10.6
2018-May-19 02:46 294 2 10.6
2018-May-19 02:31 302 1 10.6
2018-May-19 02:13 298 1 10.6
2018-May-19 01:58 317 1 10.6
2018-May-19 01:43 297 2 10.6
2018-May-19 01:28 299 3 11.1
2018-May-19 01:12 290 2 11.1